Other Public Products
Issued by NWS Grand Forks, ND

Home | Current Version | Previous Version | Graphics & Text | Print | Product List | Glossary On
Versions: 1 2 3 4 5 6 7 8 9 10 11 12 13 14 15 16 17 18 19 20 21 22 23 24 25 26 27 28 29 30 31 32 33 34 35 36 37 38 39 40 41 42 43 44 45 46 47 48 49 50
000
FPUS83 KFGF 020731
OPUFGF
PRAIRIE TO PINES WEATHER ROUNDUP
NATIONAL WEATHER SERVICE EASTERN NORTH DAKOTA/GRAND FORKS ND
200 AM CDT WED SEP 02 2015

 **SATELLITE DATA USED TO AUGMENT SKY COVER AT AUTOMATED STATIONS**
 *****  WEATHER ACROSS EASTERN NORTH DAKOTA  *****

CITY           SKY/WX    TMP DP  RH WIND       PRES   REMARKS
GRAND FORKS    PTCLDY    67  59  75 SE7       29.81F
GRAND FORKS AF CLEAR     66  59  77 SE3       29.81F
GRAND CITY NWS   N/A     68 N/A N/A SE9         N/A
BUXTON         NOT AVBL
DEVILS LAKE    CLEAR     68  59  73 SE7       29.80S
FARGO          CLEAR     73  69  87 SE7       29.82F
WAHPETON ARPT  SUNNY     68  64  88 S9        29.85S
$$

 *****  WEATHER ACROSS CENTRAL AND WESTERN NORTH DAKOTA  *****

CITY           SKY/WX    TMP DP  RH WIND       PRES   REMARKS
JAMESTOWN      CLEAR     67  65  93 S6        29.81F
BISMARCK       CLEAR     68  65  90 SE8       29.79S
MINOT          CLEAR     68  62  81 S5        29.77R
MINOT AFB      CLEAR     64  63  96 CALM      29.76R
GARRISON         N/A     68  64  87 CALM      29.78S
WILLISTON      CLEAR     59  43  55 N3        29.78F
DICKINSON      CLEAR     63  55  75 SE5       29.80S
HETTINGER      CLEAR     52  49  89 CALM      29.83F
$$

 *****  OTHER OBSERVATIONS NORTHEAST NORTH DAKOTA  *****

CITY           SKY/WX    TMP DP  RH WIND       PRES   REMARKS
WALHALLA       FAIR      63  63 100 MISG      29.80F
LANGDON        FAIR      70  63  78 S8        29.83S
CAVALIER       FAIR      59  55  88 CALM      29.81S
GRAFTON        FAIR      64  59  82 SE5       29.82S
CANDO          FAIR      64  63  94 SE8       29.80F
FORT TOTTEN      N/A     70  65  85 S8        29.95S
ROLLA          FAIR      64  61  88 SW9       29.81F
RUGBY          FAIR      72  68  88 S12       29.78F
 ***** THE ABOVE OBSERVATIONS ARE NON NWS ARE NOT QUALITY
        CONTROLLED AND MAY MIS-REPORT RAIN FOR SNOW...
$$

 *****  OTHER OBSERVATIONS SOUTHEAST NORTH DAKOTA *****

CITY           SKY/WX    TMP DP  RH WIND       PRES   REMARKS
COOPERSTOWN    NOT AVBL
VALLEY CITY    FAIR      68  68 100 S6        29.83S
OAKES          NOT AVBL
GWINNER          N/A     66  66 100 SE7       29.84S
SHEYENNE NWR     N/A     69  68  98 S5        29.95S
BUFFALO        NOT AVBL
WYNDMERE         N/A     68  68 100 S5          N/A
 ***** THE ABOVE OBSERVATIONS ARE NON NWS ARE NOT QUALITY
       CONTROLLED AND MAY MIS-REPORT RAIN FOR SNOW...
$$

  *****  WEATHER ACROSS NORTHERN MINNESOTA  *****

CITY           SKY/WX    TMP DP  RH WIND       PRES   REMARKS
FLAG ISLAND    CLEAR     68  64  88 S5        29.86S
WARROAD        CLEAR     63  57  82 S5        29.86F
ROSEAU         CLEAR     61  55  82 S6        29.85F
HALLOCK        CLEAR     64  57  77 SE9       29.81S
THF RVR FALLS  CLEAR     64  59  82 SE9       29.86S
HALSTAD        NOT AVBL
FOSSTON        CLEAR     66  59  77 SE5       29.87F
BAUDETTE       CLEAR     59  54  83 SE5       29.88F
WASKISH        CLEAR     63  55  77 CALM      29.88F
CROOKSTON      CLEAR     66  63  88 SE8       29.84S
$$
  *****  WEATHER ACROSS CENTRAL AND WEST MINNESOTA  *****

CITY           SKY/WX    TMP DP  RH WIND       PRES   REMARKS
BEMIDJI        CLEAR     64  59  83 S3        29.90S
PARK RAPIDS    PTCLDY    68  64  87 SE6       29.90F
WADENA           N/A     66  64  94 SE5       29.90S FOG
DETROIT LAKES  PTCLDY    70  68  94 S6        29.90R FOG
MOORHEAD       CLEAR     70  68  94 SE7       29.84S FOG
FERGUS FALLS   CLEAR     72  72 100 S9        29.86S
ELBOW LAKE     FAIR      68  65  91 S13       29.88S
MORRIS MN      MOCLDY    66  64  94 SE5       29.88R
STAPLES        MOCLDY    70  68  94 CALM      29.90S FOG
WHEATON        PTCLDY    64  63  94 S8        29.86F
$$
  *****  WEATHER ELSEWHERE ACROSS MINNESOTA  *****

CITY           SKY/WX    TMP DP  RH WIND       PRES   REMARKS
DULUTH         CLOUDY    70  67  90 SE3       29.94S
INTRNTL FALLS  CLEAR     49  49 100 CALM      29.91S FOG
ELY            MOCLDY    54  52  94 CALM      29.95S
CLOQUET        CLOUDY    72  68  88 E7        29.91F
BRAINERD       MOCLDY    72  68  87 S5        29.92S
HIBBING        PTCLDY    60  57  89 CALM      29.93F
ALEXANDRIA     CLOUDY    72  69  90 S9        29.92R
SAINT CLOUD    LGT RAIN  72  72 100 SE5       29.90F FOG
MINNEAPOLIS    LGT RAIN  77  73  87 SE5       29.92S FOG
$$

  *****  WEATHER ACROSS SOUTH DAKOTA  *****

CITY           SKY/WX    TMP DP  RH WIND       PRES   REMARKS
SIOUX FALLS    CLEAR     73  69  87 S10       29.85S
BROOKINGS      CLEAR     64  61  88 E9        29.89S
WATERTOWN      CLEAR     68  62  81 SE9       29.87F
HURON          CLEAR     69  68  96 SE6       29.81S FOG
SISSETON         N/A     66  64  93 S8        29.84F
ABERDEEN       CLEAR     63  61  93 SE5       29.82F
MITCHELL       FOG       67  67 100 SE5       29.81F VSB 1
PIERRE         CLEAR     68  67  96 SE6       29.76F
MOBRIDGE       CLEAR     67  67 100 SE8       29.77F
RAPID CITY     CLEAR     61  52  72 NW8       29.87S
$$

  *****  SOME WEATHER IN NEARBY STATES *****

CITY           SKY/WX    TMP DP  RH WIND       PRES   REMARKS
GLASGOW MT     CLEAR     59  42  53 E13       29.75S
GREAT FALLS MT PTCLDY    59  33  37 NW8       29.75F
CHEYENNE WY    PTCLDY    59  40  49 SW8       30.13R
SCOTTSBLUFF NE CLEAR     59  50  72 W3        29.95R
OMAHA NE       PTCLDY    76  68  76 SE15      29.90F
DES MOINES IA  CLOUDY    76  67  73 SW8       29.98R THUNDER
DAVENPORT IA   CLEAR     72  68  87 S6        30.02F
CHICAGO IL     PTCLDY    75  69  81 SW7       30.02F
EAU CLAIRE WI  PTCLDY    73  71  93 CALM      29.93F
LA CROSSE WI   MOCLDY    77  73  87 S7        29.95S
$$

  *****  SOME NATIONAL WEATHER *****

CITY           SKY/WX    TMP DP  RH WIND       PRES   REMARKS
LA GUARDIA NY  CLEAR     77  67  71 SW5       30.03F
RALEIGH NC     PTCLDY    71  68  90 CALM      30.07F
ATLANTA GA     PTCLDY    75  69  81 CALM      30.11F
NEW ORLEANS LA CLOUDY    80  72  76 CALM      30.05F
OKLAHOMA CITY  PTCLDY    71  63  75 SE8       30.03S
ALBUQUERQUE NM MOCLDY    73  43  33 S7        30.19R
SALT LAKE CITY PTCLDY    80  41  24 S21G31    29.92S
LOS ANGELES CA MOCLDY    69  62  78 CALM      29.96R
BOISE ID       PTCLDY    72  37  28 SE6       29.75R
SEATTLE WA     CLOUDY    59  54  83 S10       29.81S
$$

*** WEATHER ACROSS MANITOBA...SASKATCHEWAN AND ONTARIO ***
                ***ONTARIO***

CITY           SKY/WX    TMP DP  RH WIND       PRES   REMARKS
GERALDTON      CLEAR     55  54  94 W3        29.92R
THUNDER BAY    PTCLDY    55  54  94 W5        29.94S
SIOUX LOOKOUT  CLEAR     54  54 100 SE2       29.92S
TORONTO        CLEAR     70  63  78 NW2       30.03F
BIG TROUT LK   CLEAR     52  52 100 NE6       29.88R
PICKLE LAKE    NOT AVBL
DRYDEN         CLEAR     64  54  68 S7        29.91S
KENORA         CLEAR     64  55  72 SE7       29.88F
$$
                *** MANITOBA***

CITY           SKY/WX    TMP DP  RH WIND       PRES   REMARKS
BRANDON        CLEAR     61  55  82 E7        29.77S
DAUPHIN        CLEAR     68  59  73 SW9       29.73R
ISLAND LAKE    PTCLDY    59  59 100 E3        29.79R
PILOT MOUND      N/A     64  57  77 S9          N/A
THE PAS        NOT AVBL
THOMPSON       PTCLDY    55  54  94 E3        29.74S
WINNIPEG       CLEAR     68  55  64 S10       29.80F
LYNN LAKE      PTCLDY    57  55  94 SW5       29.68R
CHURCHILL      CLOUDY    48  46  93 S10       29.86R
$$
                ***SASKATCHEWAN***

CITY           SKY/WX    TMP DP  RH WIND       PRES   REMARKS
ESTEVAN        PTCLDY    59  46  63 E9        29.77F
KINDERSLEY     MOCLDY    59  39  47 E18       29.68F
LLOYDMINSTER   MOCLDY    50  43  76 N7        29.69F
PRINCE ALBERT  PTCLDY    45  39  81 NE2       29.74R
REGINA         MOCLDY    52  46  82 E7        29.77S
YORKTON        CLEAR     55  50  82 S7        29.77S



USA.gov is the U.S. government's official web portal to all federal, state and local government web resources and services.